Вернуться в каталог

NOAA 16 DEB

АктивенSSO
NORAD 41297·DEBRIS·🇺🇸 United States

Запущен Sep 21, 2000 с Vandenberg Space Force Base

Loading…

Ближайшие Пролёты (ближайшие 24 часа)

TLE

СвежийSource: Space-Track

Эпоха: Sep 14, 2026, 09:47 UTC

1 41297U 00055GZ  26257.40793033  .00002530  00000-0  12679-2 0  9991
2 41297  98.9546 322.5232 0063542 159.0526 201.3272 14.16498546548656

Отслеживайте NOAA 16 DEB в реальном времени с AllMySat

Download on the App Store